Weather at Skiros Airport

Public forecast

Using degrees Celsius for public forecast. Weather courtesy of forecast.io.

Current aviation weather report (METAR) for Skiros Airport

Retrieved 2021/06/15 18:50 UTC (44 minutes ago):

LGSY 151850Z 00000KT CAVOK 17/14 Q1013 RMK FEW080 SCT180 BLU

Closest aviation forecast (TAF) to Skiros Airport

Forecast is more than 12 hours old.

Closest forecast is Skiathos Island National Airport, 47.5 nm (88.0 km) WNW. Retrieved 2012/09/27 00:18 UTC (9 years ago):

TAF LGSK 272300Z 2800/2909 01010KT 9999 FEW020